Overview Statistics Trail Chart Weather Telemetry Raw packets
 

This is the latest recevied weather packets stored in our database for station/object NL3D. If no packets are shown the sender has not sent any weather packets the latest 10 day(s).

<< 40 41 42 43 44 45 46 >>
Time Temp. Humidity Pressure Rain* Wind** Luminosity Snow
1777432129 3.89° C 88% 1017.6 hPa 0 mm - 114 W/m² -
1777431824 3.89° C 88% 1017.8 hPa 0 mm - 131 W/m² -
1777431521 3.89° C 88% 1017.7 hPa 0 mm - 131 W/m² -
1777431217 3.33° C 89% 1017.8 hPa 0 mm - 123 W/m² -
1777430913 3.89° C 90% 1017.8 hPa 0 mm - 104 W/m² -
1777430610 3.33° C 89% 1017.6 hPa 0 mm - 108 W/m² -
1777430306 3.33° C 88% 1017.6 hPa 0 mm - 97 W/m² -
1777430005 3.33° C 89% 1017.7 hPa 0 mm - 99 W/m² -
1777429702 3.33° C 89% 1017.4 hPa 0 mm - 98 W/m² -
1777429398 3.33° C 89% 1017.7 hPa 0 mm - 88 W/m² -
1777429094 3.33° C 89% 1017.6 hPa 0 mm - 79 W/m² -
1777428790 3.33° C 88% 1017.6 hPa 0 mm - 99 W/m² -
1777428486 3.33° C 89% 1017.4 hPa 0 mm - 106 W/m² -
1777428182 3.33° C 89% 1017.6 hPa 0.51 mm - 102 W/m² -
1777427878 3.33° C 88% 1017.7 hPa 0.51 mm - 67 W/m² -
1777427574 3.33° C 88% 1017.6 hPa 0 mm - 40 W/m² -
1777427270 3.33° C 88% 1017.5 hPa 0 mm - 58 W/m² -
1777426968 3.33° C 88% 1017.6 hPa 0.51 mm - 39 W/m² -
1777426665 3.33° C 88% 1017.5 hPa 0.51 mm - 26 W/m² -
1777426362 3.33° C 87% 1017.4 hPa 0.51 mm - 34 W/m² -
1777426057 3.89° C 86% 1017.3 hPa 0.51 mm - 44 W/m² -
1777425752 3.89° C 85% 1017.4 hPa 0 mm - 47 W/m² -
1777425448 3.89° C 84% 1017.2 hPa 0 mm - 30 W/m² -
1777425145 3.89° C 84% 1017.1 hPa 0 mm - 85 W/m² -
1777424840 4.44° C 84% 1017 hPa 0 mm - 93 W/m² -

* Rain latest hour (hover to see other rain measurements)
** Current wind speed in m/s (hover to see current wind gust speed)